Regional Weather Roundup
Issued by NWS

Home | Current Version | Previous Version | Text Only | Print | Product List | Glossary Off
Versions: 1 2 3 4 5 6 7 8 9 10 11 12 13 14 15 16 17 18 19 20 21 22 23 24 25 26 27 28 29 30 31 32 33 34 35 36 37 38 39 40 41 42 43 44 45 46 47 48 49 50

674
ASUS43 KIND 261259
RWRIN

WEATHER ROUNDUP FOR INDIANA
NATIONAL WEATHER SERVICE INDIANAPOLIS IN
900 AM EDT THU APR 26 2018

NOTE: "FAIR" INDICATES FEW OR NO CLOUDS BELOW 12,000 FEET WITH NO
SIGNIFICANT WEATHER AND/OR OBSTRUCTIONS TO VISIBILITY.

* - STATION DOES NOT REPORT WEATHER SUCH AS PRECIPITATION OR FOG.

+ - STATION NOT QUALITY CONTROLLED BY THE NATIONAL WEATHER SERVICE.
    USE DATA WITH CAUTION...ESPECIALLY DEWPOINT AND RELATIVE
    HUMIDITY OBSERVATIONS.

INZ001>003-010>013-019-020-261400-
NORTHWEST INDIANA

CITY           SKY/WX    TMP DP  RH WIND       PRES   REMARKS
GARY /AIRPORT/ SUNNY     45  32  61 N7        29.98R
KNOX *+        FAIR      39  36  87 NE5       29.96S WCI  36
MONTICELLO +   FAIR      39  33  79 NE6       29.96R WCI  35
RENSSELAER +   FAIR      41  32  70 N5        29.97R

$$

LMZ046-743>745-261400-
SOUTHERN LAKE MICHIGAN

STATION/POSITION TIME  TEMP    WIND        PRES    WAVE
                       AIR SEA DIR/SP/G            HT
                 (UTC) (F)     (DEG/KT/KT) (MB)    (FT)
BURNS HARBOR     1240   40      20/  6/  6 1015.6R
MICHIGAN CITY    1230   40      10/  8/  8   N/A

$$

INZ004-005-014>016-021>024-261400-
NORTH CENTRAL INDIANA

CITY           SKY/WX    TMP DP  RH WIND       PRES   REMARKS
ELKHART        FAIR      45  37  76 CALM      29.96R
GOSHEN         FAIR      45  40  82 SE3       29.95R
PERU/GRISSOM   FAIR      41  40  95 NE3       29.93R
ROCHESTER +    FAIR      43  37  81 E3        29.95S
SOUTH BEND     FAIR      43  35  73 NE3       29.97R
WARSAW +       FAIR      43  37  81 E6        29.95R

$$

INZ006>009-017-018-025>027-261400-
NORTHEAST INDIANA

CITY           SKY/WX    TMP DP  RH WIND       PRES   REMARKS
ANGOLA *+      FOG       41  39  93 SE5       29.95R VSB<1/4
FORT WAYNE     FAIR      45  40  82 E6        29.96R
KENDALLVILLE + FAIR      44  38  82 SE5       29.95S

$$

INZ028-029-035-036-043>045-051>053-261400-
WEST CENTRAL INDIANA

CITY           SKY/WX    TMP DP  RH WIND       PRES   REMARKS
CRAWFORDSVL +  FAIR      38  33  79 N7        29.95R WCI  33
GREENCASTLE +  FAIR      41  32  70 CALM      29.95R
LAFAYETTE      FAIR      41  34  76 NE8       29.96R
TERRE HAUTE    FAIR      45  32  60 N6        29.97R

$$

INZ030>032-037>040-046>048-054>057-064-065-261400-
CENTRAL INDIANA

CITY           SKY/WX    TMP DP  RH WIND       PRES   REMARKS
ANDERSON       SUNNY     39  32  75 CALM      29.94
COLUMBUS       SUNNY     43  34  70 CALM      29.94R
GREENWOOD *+   FAIR      42  32  67 NE5       29.94R
INDIANAPOLIS   FAIR      43  32  65 N6        29.93R
-EAGLE CREEK   FAIR      43  31  62 NE5       29.93R
KOKOMO +       FAIR      41  34  76 NE5       29.95R
MT COMFORT *+  FAIR      41  36  81 N6        29.93S
SHELBYVILLE    FAIR      44  33  65 NE5       29.93R
ZIONSVILLE +   FAIR      37  32  81 NE3       29.94S

$$

INZ033-034-041-042-049-050-058-059-261400-
EAST CENTRAL INDIANA

CITY           SKY/WX    TMP DP  RH WIND       PRES   REMARKS
MUNCIE         FAIR      42  34  73 E3        29.93R
RICHMOND +     PTSUNNY   41  41 100 E9        29.92R FOG

$$

INZ060-061-067>069-081>083-085>088-261400-
SOUTHWEST INDIANA

CITY           SKY/WX    TMP DP  RH WIND       PRES   REMARKS
EVANSVILLE     FAIR      52  37  56 NE8       29.94R
HUNTINGBURG +  FAIR      49  37  63 NE3       29.95R

$$

INZ062-063-066-070>080-084-089>092-261400-
SOUTH CENTRAL AND SOUTHEAST INDIANA

CITY           SKY/WX    TMP DP  RH WIND       PRES   REMARKS
BLOOMINGTON    FAIR      46  33  60 CALM      29.95R
FRENCH LICK *+ FAIR      48  25  40 CALM      29.95R
SEYMOUR +      FAIR      48  30  49 NE3       29.96R

$$





USA.gov is the U.S. government's official web portal to all federal, state and local government web resources and services.